Change the Weather History Date:

Saturday, January 25, 2014

  Actual Average Record
Temperature  
Mean Temperature 20 °F -  
Max Temperature 32 °F 33 °F 37 °F (2015)
Min Temperature 8 °F 16 °F 8 °F (2014)
Degree Days  
Heating Degree Days 45    
Moisture  
Dew Point 13 °F    
Average Humidity 67    
Maximum Humidity 93    
Minimum Humidity 38    
Precipitation  
Precipitation 0.00 in - - ()
Sea Level Pressure  
Sea Level Pressure 29.59 in    
Wind  
Wind Speed 17 mph (West)    
Max Wind Speed 25 mph    
Max Gust Speed 36 mph    
Visibility 6 miles    
Events Snow    
Averages and records for this station are not official NWS values.
T = Trace of Precipitation, MM = Missing Value Source: NWS Daily Summary

Daily Weather History Graph

Daily Weather History Graph

Search for Another Location

Airport or City:

Trip Planner

Search our weather history database for the weather conditions in past years. The results will help you decide how hot, cold, wet, or windy it might be!

Date:

Astronomy

Jan. 25, 2014 Rise Set
Actual Time 8:01 AM EST 5:53 PM EST
Civil Twilight 7:31 AM EST 6:22 PM EST
Nautical Twilight 6:58 AM EST 6:56 PM EST
Astronomical Twilight 6:26 AM EST 7:28 PM EST
Moon 2:32 AM EST (1/25) 12:53 PM EST (1/25)
Length of Visible Light 10h 50m
Length of Day
9h 51m
Waning Crescent, 34% of the Moon is Illuminated
Jan 25
Waning Crescent
Jan 30
New
Feb 6
First Quarter
Feb 14
Full
Feb 22
Last Quarter

Hourly Weather History & Observations

Time (EST) Temp. Windchill Dew Point Humidity Pressure Visibility Wind Dir Wind Speed Gust Speed Precip Events Conditions
12:15 AM 23.0 °F 9.2 °F 19.4 °F 86% 29.62 in 2.5 mi SW 17.3 mph 32.2 mph N/A Snow Light Snow
12:35 AM 23.0 °F 8.0 °F 19.4 °F 86% 29.60 in 3.0 mi SW 20.7 mph 31.1 mph N/A Snow Light Snow
12:55 AM 23.0 °F 7.6 °F 19.4 °F 86% 29.58 in 1.5 mi SW 21.9 mph 28.8 mph N/A Snow Light Snow
1:15 AM 23.0 °F 8.3 °F 21.2 °F 93% 29.56 in 1.2 mi SW 19.6 mph 26.5 mph N/A Snow Light Snow
1:35 AM 24.8 °F 10.7 °F 21.2 °F 86% 29.54 in 1.5 mi SW 19.6 mph 29.9 mph N/A Snow Light Snow
1:55 AM 24.8 °F 10.0 °F 21.2 °F 86% 29.53 in 4.0 mi SW 21.9 mph 28.8 mph N/A Snow Light Snow
2:15 AM 24.8 °F 10.0 °F 21.2 °F 86% 29.51 in 3.0 mi SW 21.9 mph 25.3 mph N/A Snow Light Snow
2:35 AM 26.6 °F 13.1 °F 21.2 °F 80% 29.50 in 2.0 mi SW 19.6 mph 33.4 mph N/A Snow Light Snow
2:55 AM 26.6 °F 11.7 °F 23.0 °F 86% 29.50 in 1.8 mi SW 24.2 mph 31.1 mph N/A Snow Light Snow
3:15 AM 26.6 °F 13.4 °F 23.0 °F 86% 29.48 in 1.8 mi SW 18.4 mph 29.9 mph N/A Snow Light Snow
3:35 AM 28.4 °F 15.4 °F 23.0 °F 80% 29.47 in 2.0 mi SW 19.6 mph 26.5 mph N/A Snow Light Snow
3:55 AM 28.4 °F 15.8 °F 24.8 °F 86% 29.46 in 1.2 mi SW 18.4 mph 28.8 mph N/A Snow Light Snow
4:15 AM 28.4 °F 14.7 °F 24.8 °F 86% 29.46 in 2.0 mi SW 21.9 mph 28.8 mph N/A Snow Light Snow
4:35 AM 28.4 °F 15.8 °F 24.8 °F 86% 29.45 in 2.0 mi SW 18.4 mph 28.8 mph N/A Snow Light Snow
4:55 AM 28.4 °F 15.8 °F 24.8 °F 86% 29.44 in 2.0 mi WSW 18.4 mph 29.9 mph N/A Snow Light Snow
5:15 AM 28.4 °F 15.8 °F 24.8 °F 86% 29.43 in 3.0 mi SW 18.4 mph 32.2 mph N/A Snow Light Snow
5:35 AM 28.4 °F 16.2 °F 26.6 °F 93% 29.42 in 1.5 mi WSW 17.3 mph 27.6 mph N/A Snow Light Snow
5:55 AM 30.2 °F 17.8 °F 26.6 °F 86% 29.42 in 2.0 mi WSW 19.6 mph 27.6 mph N/A Snow Light Snow
6:15 AM 30.2 °F 17.8 °F 26.6 °F 86% 29.41 in 2.5 mi SW 19.6 mph 28.8 mph N/A Snow Light Snow
6:35 AM 30.2 °F 17.8 °F 28.4 °F 93% 29.40 in 2.5 mi WSW 19.6 mph 24.2 mph N/A   Overcast
6:55 AM 30.2 °F 19.3 °F 28.4 °F 93% 29.40 in 4.0 mi WSW 15.0 mph 25.3 mph N/A   Overcast
7:15 AM 30.2 °F 20.8 °F 28.4 °F 93% 29.41 in 2.5 mi WSW 11.5 mph 20.7 mph N/A Snow Light Snow
7:35 AM 32.0 °F 23.0 °F 30.2 °F 93% 29.42 in 10.0 mi West 11.5 mph 19.6 mph N/A   Overcast
7:55 AM 32.0 °F 23.6 °F 30.2 °F 93% 29.42 in 10.0 mi West 10.4 mph 16.1 mph N/A   Overcast
8:15 AM 32.0 °F 25.6 °F 28.4 °F 87% 29.43 in 10.0 mi West 6.9 mph - N/A   Mostly Cloudy
8:35 AM 32.0 °F 26.4 °F 30.2 °F 93% 29.43 in 10.0 mi West 5.8 mph - N/A   Scattered Clouds
8:55 AM 32.0 °F 23.0 °F 28.4 °F 87% 29.44 in 10.0 mi WNW 11.5 mph 17.3 mph N/A   Scattered Clouds
9:15 AM 32.0 °F 21.2 °F 23.0 °F 69% 29.43 in 7.0 mi NW 16.1 mph 26.5 mph N/A   Mostly Cloudy
9:35 AM 32.0 °F 21.2 °F 21.2 °F 64% 29.44 in 7.0 mi NW 16.1 mph 26.5 mph N/A   Scattered Clouds
9:55 AM 32.0 °F 19.5 °F 21.2 °F 64% 29.44 in 7.0 mi NW 21.9 mph 31.1 mph N/A   Clear
10:15 AM 32.0 °F 22.1 °F 19.4 °F 60% 29.45 in 10.0 mi WNW 13.8 mph 21.9 mph N/A   Clear
10:35 AM 30.2 °F 16.8 °F 17.6 °F 60% 29.46 in 7.0 mi NNW 23.0 mph 31.1 mph N/A Snow Light Snow
10:55 AM 30.2 °F 18.5 °F 14.0 °F 51% 29.48 in 10.0 mi WNW 17.3 mph 23.0 mph N/A   Scattered Clouds
11:15 AM 28.4 °F 13.8 °F 10.4 °F 47% 29.49 in 5.0 mi NW 25.3 mph 33.4 mph N/A   Haze
11:35 AM 28.4 °F 15.1 °F 10.4 °F 47% 29.50 in 5.0 mi WNW 20.7 mph 26.5 mph N/A   Haze
11:55 AM 26.6 °F 12.4 °F 17.6 °F 69% 29.52 in 1.2 mi NW 21.9 mph 31.1 mph N/A Snow Light Snow
12:15 PM 26.6 °F 12.7 °F 14.0 °F 59% 29.53 in 3.0 mi NW 20.7 mph 27.6 mph N/A   Haze
12:35 PM 26.6 °F 13.4 °F 12.2 °F 55% 29.54 in 7.0 mi NW 18.4 mph 26.5 mph N/A   Mostly Cloudy
12:55 PM 26.6 °F 12.7 °F 12.2 °F 55% 29.55 in 7.0 mi WNW 20.7 mph 26.5 mph N/A   Scattered Clouds
1:15 PM 26.6 °F 12.7 °F 12.2 °F 55% 29.55 in 4.0 mi NW 20.7 mph 32.2 mph N/A   Haze
1:35 PM 24.8 °F 9.6 °F 10.4 °F 54% 29.57 in 2.5 mi NNW 23.0 mph 33.4 mph N/A   Haze
1:55 PM 23.0 °F 6.6 °F 12.2 °F 63% 29.58 in 2.5 mi NNW 25.3 mph 35.7 mph N/A   Haze
2:15 PM 23.0 °F 8.0 °F 8.6 °F 54% 29.59 in 5.0 mi NW 20.7 mph 27.6 mph N/A   Haze
2:35 PM 23.0 °F 8.3 °F 8.6 °F 54% 29.60 in 7.0 mi NW 19.6 mph 28.8 mph N/A   Scattered Clouds
2:55 PM 24.8 °F 11.5 °F 10.4 °F 54% 29.61 in 7.0 mi NW 17.3 mph 29.9 mph N/A   Mostly Cloudy
3:15 PM 23.0 °F 8.7 °F 5.0 °F 46% 29.63 in 5.0 mi WNW 18.4 mph 31.1 mph N/A   Haze
3:35 PM 23.0 °F 10.1 °F 5.0 °F 46% 29.64 in 10.0 mi WNW 15.0 mph 24.2 mph N/A   Scattered Clouds
3:55 PM 23.0 °F 9.6 °F 8.6 °F 54% 29.65 in 10.0 mi NW 16.1 mph 26.5 mph N/A   Mostly Cloudy
4:15 PM 23.0 °F 8.3 °F 5.0 °F 46% 29.67 in 10.0 mi NW 19.6 mph 29.9 mph N/A   Mostly Cloudy
4:35 PM 21.2 °F 7.8 °F 5.0 °F 50% 29.69 in 10.0 mi NW 15.0 mph 21.9 mph N/A   Scattered Clouds
4:55 PM 21.2 °F 7.8 °F 5.0 °F 50% 29.71 in 10.0 mi NW 15.0 mph 25.3 mph N/A   Scattered Clouds
5:15 PM 19.4 °F 4.5 °F 3.2 °F 49% 29.72 in 10.0 mi NW 17.3 mph 23.0 mph N/A   Clear
5:35 PM 19.4 °F 5.0 °F -0.4 °F 42% 29.73 in 10.0 mi WNW 16.1 mph 23.0 mph N/A   Clear
5:55 PM 17.6 °F 2.7 °F -4.0 °F 38% 29.75 in 10.0 mi WNW 16.1 mph 27.6 mph N/A   Clear
6:15 PM 17.6 °F 3.7 °F -4.0 °F 38% 29.76 in 10.0 mi WNW 13.8 mph 20.7 mph N/A   Clear
6:35 PM 17.6 °F 4.3 °F -4.0 °F 38% 29.78 in 10.0 mi West 12.7 mph 19.6 mph N/A   Clear
6:55 PM 15.8 °F 2.7 °F -0.4 °F 49% 29.80 in 10.0 mi West 11.5 mph 18.4 mph N/A   Clear
7:15 PM 14.0 °F -0.2 °F -0.4 °F 53% 29.80 in 10.0 mi West 12.7 mph 19.6 mph N/A   Clear
7:35 PM 14.0 °F -0.2 °F -0.4 °F 53% 29.81 in 10.0 mi West 12.7 mph 17.3 mph N/A   Clear
7:55 PM 14.0 °F -0.2 °F -0.4 °F 53% 29.82 in 10.0 mi West 12.7 mph 19.6 mph N/A   Clear
8:15 PM 14.0 °F 0.5 °F -0.4 °F 53% 29.82 in 10.0 mi West 11.5 mph 17.3 mph N/A   Clear
8:35 PM 12.2 °F -1.0 °F -0.4 °F 57% 29.83 in 10.0 mi West 10.4 mph 16.1 mph N/A   Clear
8:55 PM 12.2 °F -1.0 °F -2.2 °F 53% 29.84 in 10.0 mi West 10.4 mph 17.3 mph N/A   Clear
9:15 PM 12.2 °F 0.7 °F -0.4 °F 57% 29.85 in 10.0 mi West 8.1 mph 18.4 mph N/A   Clear
10:15 PM 10.4 °F -3.3 °F -0.4 °F 62% 29.87 in 10.0 mi West 10.4 mph - N/A   Clear
10:35 PM 10.4 °F -3.3 °F -0.4 °F 62% 29.85 in 10.0 mi West 10.4 mph - N/A   Clear
10:55 PM 10.4 °F 0.8 °F -0.4 °F 62% 29.85 in 10.0 mi West 5.8 mph - N/A   Clear
11:15 PM 10.4 °F 2.2 °F -0.4 °F 62% 29.85 in 10.0 mi West 4.6 mph - N/A   Clear
11:35 PM 8.6 °F -1.3 °F -0.4 °F 67% 29.85 in 10.0 mi West 5.8 mph - N/A   Clear
11:55 PM 8.6 °F 0.1 °F -0.4 °F 67% 29.84 in 10.0 mi West 4.6 mph - N/A   Clear